#timestamp,LO_Frequency,Hit,StdDev 
1653375615.1,286046996.9,N
1653375635.9,286046998.8,N
1653375655.7,286046999.6,N
1653375675.5,286046999.4,N
1653375695.4,286047001.0,N
1653375715.2,286047000.7,N
1653375735.0,286047001.0,N
1653375736.0,286047001.0,N
1653375755.8,286047000.9,N
1653375775.6,286046999.7,N
1653375795.5,286047000.2,N
1653375815.3,286047002.3,N
1653375835.1,286047001.1,N
1653375855.9,286046998.7,N
1653375875.7,286046999.2,N
1653375895.6,286046996.7,N
1653375915.4,286046996.8,N
1653375935.2,286046997.3,N
1653375955.1,286046996.7,N
1653375956.0,286046996.7,N
1653375975.8,286046998.9,N
1653375995.6,286046998.9,N
1653376015.5,286046998.6,N
1653376035.3,286046999.0,N
1653376055.2,286046999.6,N
1653376075.9,286046996.7,N
1653376095.7,286046997.7,N
1653376115.6,286046996.2,N
1653376135.4,286046995.3,N
1653376155.2,286046996.3,N
1653376175.1,286046995.6,N
1653376176.0,286046995.6,N
1653376195.8,286046995.5,N
1653376215.7,286046996.1,N
1653376235.5,286046995.2,N
1653376255.3,286046995.9,N
1653376275.2,286046995.8,N
1653376295.0,286046998.0,N
1653376295.9,286046998.0,N
1653376315.7,286046996.0,N
1653376335.6,286046997.5,N
1653376355.4,286046996.7,N
1653376375.3,286046996.9,N
1653376395.1,286046999.6,N
1653376396.0,286046999.6,N
1653376415.8,286046999.6,N
1653376435.7,286046997.8,N
1653376455.5,286046997.1,N
1653376475.3,286046996.9,N
1653376495.2,286046997.8,N
1653376515.0,286046994.9,Y
1653376515.9,286046994.9,P
1653376535.8,286046998.2,N
1653376555.6,286046999.4,N
1653376575.4,286046998.8,N
1653376595.3,286046998.2,N
1653376615.1,286046998.5,N
1653376635.9,286046999.2,N
1653376655.7,286046996.5,N
1653376675.5,286046996.8,N
1653376695.4,286046998.7,N
1653376715.2,286046996.9,N
1653376735.0,286046999.1,N
1653376735.9,286046999.1,N
1653376755.8,286046999.6,N
1653376775.6,286046997.1,N
1653376795.5,286046997.4,N
1653376815.3,286046997.0,N
1653376835.1,286046996.6,N
1653376855.9,286046999.6,N
1653376875.7,286046996.7,N
1653376895.6,286046999.5,N
1653376915.4,286046997.0,N
1653376935.2,286046997.8,N
1653376955.1,286046997.6,N
1653376956.0,286046997.6,N
1653376975.8,286046997.1,N
1653376995.6,286046997.2,N
1653377015.5,286046997.7,N
1653377035.3,286046997.9,N
1653377055.2,286046995.3,Y
1653377075.0,286046998.4,P
1653377075.9,286046998.4,P
1653377095.7,286046998.9,P
1653377115.6,286046998.9,N
1653377135.4,286046998.4,Y
1653377155.3,286046999.9,P
1653377175.1,286047002.8,P
1653377195.8,286047002.3,N
1653377215.7,286047001.3,N
1653377235.5,286047001.8,N
1653377255.3,286047001.6,N
1653377275.2,286047001.8,N
1653377295.0,286047003.8,N
1653377295.9,286047003.8,N
1653377315.8,286047004.0,N
1653377335.6,286047004.3,N
1653377355.4,286047004.1,N
1653377375.3,286047004.1,N
1653377395.1,286047004.3,N
1653377415.9,286047004.2,N
1653377435.7,286047004.1,N
1653377455.5,286047003.1,N
1653377475.4,286047003.6,N
1653377495.2,286047001.9,N
1653377515.0,286047002.7,N
1653377515.9,286047002.7,N
1653377535.8,286046999.8,N
1653377555.6,286047000.3,N
1653377575.5,286047002.8,N
1653377595.3,286047000.4,N
1653377615.1,286046999.7,N
1653377635.9,286047002.3,N
1653377655.7,286047000.1,N
1653377675.5,286046999.9,N
1653377695.4,286047000.4,N
1653377715.2,286047001.0,N
1653377735.1,286047000.4,N
1653377736.0,286047000.4,N
1653377755.8,286046998.7,N
1653377775.6,286046998.3,N
1653377795.5,286047000.7,N
1653377815.3,286046998.3,N
1653377835.1,286047001.0,N
1653377855.9,286047000.6,N
1653377875.7,286047002.8,N
1653377895.6,286047001.4,N
1653377915.4,286047003.6,N
1653377935.2,286047002.9,N
1653377955.1,286047006.0,Y
1653377956.0,286047006.0,P
1653377975.8,286047003.9,N
1653377995.7,286047004.2,N
1653378015.5,286047002.1,N
1653378035.3,286047001.5,N
1653378055.2,286047002.1,N
1653378075.9,286047001.7,N
1653378095.7,286046999.8,N
1653378115.6,286047002.6,N
1653378135.4,286047002.8,N
1653378155.3,286047002.0,N
1653378175.1,286047002.1,N
1653378176.0,286047002.1,N
1653378195.8,286047002.1,N
1653378215.7,286047001.9,N
1653378235.5,286047002.2,N
1653378255.3,286047002.3,N
1653378275.2,286047002.6,N
1653378325.1,286047002.6,E
1653378335.9,286047001.1,N
1653378355.7,286046998.6,P
1653378375.5,286047011.9,P
1653378395.4,286047000.8,N
1653378415.2,286047001.0,N
1653378435.1,286046999.4,N
1653378436.0,286046999.4,N
1653378455.8,286046998.2,N
1653378475.6,286047000.7,N
1653378495.5,286046998.8,N
1653378515.3,286046998.8,N
1653378535.2,286046998.8,N
1653378555.9,286046998.4,N
1653378575.7,286047001.1,N
1653378595.6,286046998.5,N
1653378615.4,286047001.2,N
1653378635.2,286047001.2,N
1653378655.1,286046998.5,N
1653378656.0,286046998.5,N
1653378675.8,286047000.8,N
1653378695.7,286047000.7,N
1653378715.5,286047000.7,N
1653378735.3,286047000.3,N
1653378755.2,286047000.8,N
1653378775.0,286047000.7,N
1653378775.9,286047000.7,N
1653378795.7,286047001.1,N
1653378815.6,286047000.0,N
1653378835.4,286047000.5,N
1653378855.3,286046999.7,N
1653378875.1,286047002.2,N
1653378876.0,286047002.2,N
1653378895.8,286047002.7,N
1653378915.7,286046999.8,N
1653378935.5,286047000.2,N
1653378955.3,286047000.4,N
1653378975.2,286047001.1,N
1653378995.0,286047000.5,N
1653378995.9,286047000.5,N
1653379015.8,286047001.0,N
1653379035.6,286047001.1,N
1653379055.4,286046998.2,N
1653379075.3,286046998.4,N
1653379095.1,286046998.1,N
1653379115.9,286046999.1,N
1653379135.7,286046998.2,N
1653379155.5,286047000.8,N
1653379175.4,286047001.1,N
1653379195.2,286046998.3,N
